sat.trackr.live / text

‹ back to catalog

2026-106D

NORAD 69100 · 2026-106D

PAYLOAD ACTIVE UNKNOWN

§ Identity

Operator
Country
PRC
Launch date
2026-05-15
Launch site
JSC
Launch vehicle
Mass (kg)
RCS (m²)

External: N2YO · Heavens-Above · Gunter

§ Orbital elements

Epoch: 2026-09-20T03:47:16.970784Z

Period
95.15 min
Inclination
97.5069°
Eccentricity
0.0001617
Mean motion
15.13465871 rev/d
Perigee alt
524.5 km
Apogee alt
526.8 km
Semi-major
6,903.8 km
B*
6.7568e-5
RAAN
343.6521°
Arg perigee
88.4521°
Mean anomaly
271.6895°
Rev number
1,933

§ Raw data

2026-106D1 69100U 26106D   26263.15783531  .00001143  00000+0  67568-4 0  99972 69100  97.5069 343.6521 0001617  88.4521 271.6895 15.13465871 19336

JSON: /api/v1/satellites/69100 · /tle

For live sub-satellite position, see the globe view (requires WebGL).

§ Visibility from observer

Set your observer location to see the next 7 days of passes ≥ 10°. The values pass through the URL so the page stays shareable.

No JS? Fill the form by hand. The geolocation button needs JavaScript.

§ Radio — SatNOGS DB

ModeDescriptionDownlinkUplink
UNKNOWN UHF Downlink 401.150 MHz

1 transmitter · refreshed weekly from db.satnogs.org